TimeCST,TemperatureF,Dew PointF,Humidity,Sea Level PressureIn,VisibilityMPH,Wind Direction,Wind SpeedMPH,Gust SpeedMPH,PrecipitationIn,Events,Conditions,WindDirDegrees,DateUTC
12:53 AM,21.0,14.0,74,30.09,10.0,WNW,10.4,-,N/A,,Clear,290,2012-12-31 06:53:00
1:53 AM,19.0,12.9,77,30.10,10.0,WNW,8.1,-,N/A,,Clear,290,2012-12-31 07:53:00
2:53 AM,19.0,12.9,77,30.15,10.0,West,8.1,-,N/A,,Clear,280,2012-12-31 08:53:00
3:53 AM,17.1,12.0,81,30.15,10.0,WNW,8.1,-,N/A,,Clear,290,2012-12-31 09:53:00
4:51 AM,17.6,12.2,79,30.13,10.0,NW,8.1,-,N/A,,Mostly Cloudy,310,2012-12-31 10:51:00
4:53 AM,17.1,12.0,81,30.16,10.0,NW,8.1,-,N/A,,Mostly Cloudy,310,2012-12-31 10:53:00
5:53 AM,18.0,14.0,84,30.16,10.0,NNW,12.7,-,N/A,,Overcast,340,2012-12-31 11:53:00
6:53 AM,18.0,14.0,84,30.17,10.0,North,13.8,-,N/A,,Scattered Clouds,350,2012-12-31 12:53:00
7:53 AM,17.1,10.9,77,30.19,10.0,North,15.0,-,N/A,,Clear,350,2012-12-31 13:53:00
8:53 AM,17.1,10.9,77,30.21,10.0,NNW,11.5,19.6,N/A,,Partly Cloudy,340,2012-12-31 14:53:00
9:53 AM,18.0,10.9,74,30.22,10.0,NNW,15.0,-,N/A,,Clear,340,2012-12-31 15:53:00
10:53 AM,18.0,10.0,71,30.23,10.0,North,19.6,25.3,N/A,,Scattered Clouds,360,2012-12-31 16:53:00
11:53 AM,18.0,10.0,71,30.24,10.0,NNW,18.4,24.2,N/A,,Partly Cloudy,330,2012-12-31 17:53:00
12:53 PM,18.0,10.0,71,30.22,10.0,NNW,11.5,-,N/A,,Overcast,330,2012-12-31 18:53:00
1:53 PM,17.1,10.0,74,30.21,10.0,NNW,13.8,-,N/A,,Mostly Cloudy,340,2012-12-31 19:53:00
2:36 PM,17.6,8.6,68,30.15,10.0,NNW,15.0,-,N/A,,Mostly Cloudy,330,2012-12-31 20:36:00
2:44 PM,17.6,8.6,68,30.15,10.0,North,17.3,-,N/A,,Mostly Cloudy,350,2012-12-31 20:44:00
2:53 PM,17.1,10.0,74,30.19,10.0,NNW,12.7,-,N/A,,Mostly Cloudy,340,2012-12-31 20:53:00
3:01 PM,15.8,10.4,79,30.16,10.0,NNW,15.0,-,N/A,,Overcast,330,2012-12-31 21:01:00
3:08 PM,15.8,8.6,73,30.16,10.0,NNW,16.1,-,N/A,,Mostly Cloudy,330,2012-12-31 21:08:00
3:53 PM,16.0,10.0,77,30.19,10.0,North,13.8,-,N/A,,Mostly Cloudy,350,2012-12-31 21:53:00
4:53 PM,16.0,7.0,68,30.20,10.0,NNW,13.8,-,N/A,,Mostly Cloudy,340,2012-12-31 22:53:00
5:53 PM,15.1,6.1,68,30.22,10.0,NNW,12.7,-,N/A,,Overcast,340,2012-12-31 23:53:00
6:53 PM,14.0,6.1,71,30.24,10.0,NNW,10.4,-,N/A,,Overcast,340,2013-01-01 00:53:00
7:53 PM,12.9,5.0,71,30.25,10.0,NNW,12.7,-,N/A,,Mostly Cloudy,340,2013-01-01 01:53:00
8:53 PM,10.9,3.0,70,30.26,10.0,NNW,11.5,-,N/A,,Mostly Cloudy,340,2013-01-01 02:53:00
9:53 PM,10.0,1.9,70,30.28,10.0,NNW,12.7,-,N/A,,Scattered Clouds,340,2013-01-01 03:53:00
10:53 PM,7.0,1.0,77,30.30,10.0,North,8.1,-,N/A,,Partly Cloudy,350,2013-01-01 04:53:00
11:53 PM,5.0,-0.9,76,30.30,10.0,North,9.2,-,N/A,,Clear,350,2013-01-01 05:53:00